Regional Weather Roundup
Issued by NWS Glasgow, MT

Home | Current Version | Previous Version | Text Only | Print | Product List | Glossary On
Versions: 1 2 3 4 5 6 7 8 9 10 11 12 13 14 15 16 17 18 19 20 21 22 23 24 25 26 27 28 29 30 31 32 33 34 35 36 37 38 39 40 41 42 43 44 45 46 47 48 49 50
000
ASUS45 KGGW 080315
RWRGGW
HOURLY REGIONAL WEATHER ROUNDUP FOR NORTHEAST MONTANA
NATIONAL WEATHER SERVICE GLASGOW MONTANA
800 PM MST SUN FEB 07 2016

NOTE: "FAIR" INDICATES FEW OR NO CLOUDS BELOW 12,000 FEET WITH NO
SIGNIFICANT WEATHER AND/OR OBSTRUCTIONS TO VISISBILITY.

NORTHEAST MONTANA


CITY           SKY/WX    TMP DP  RH WIND       PRES   REMARKS
GLASGOW        CLEAR     27  17  66 NW9       30.40R
PLENTYWOOD       N/A     27  21  78 NW17G30     N/A
WOLF POINT     CLEAR     32  18  56 NW15      30.38R
JORDAN           N/A     32  17  54 NW16      30.41F
WINNETT          N/A     25  15  66 CALM        N/A
SIDNEY         CLEAR     30  16  55 NW15      30.33R
GLENDIVE       CLEAR     30  16  55 NW18G24   30.36S
SCOBEY           N/A     25  11  55 NW10      30.30

FORT PECK REPORTS


CITY           SKY/WX    TMP DP  RH WIND       PRES   REMARKS
FORT PECK        N/A     32  20  61 W17G26      N/A
THE PINES        N/A     32  21  64 NW8         N/A

SOUTHEAST MONTANA


CITY           SKY/WX    TMP DP  RH WIND       PRES   REMARKS
BILLINGS       MOCLDY    33   9  36 N3        30.45S
MILES CITY     CLEAR     29  15  56 W10       30.41R
BAKER          CLEAR     29  13  51 NW20G28   30.31S
LIVINGSTON     CLOUDY    37  14  38 NW13      30.45S

CENTRAL MONTANA


CITY           SKY/WX    TMP DP  RH WIND       PRES   REMARKS
HAVRE          CLEAR     23  16  74 CALM      30.45R
LEWISTOWN      CLEAR     25  12  58 S10       30.42R
GREAT FALLS    CLOUDY    31  16  54 SW10      30.41F
CUT BANK       PTCLDY    32  17  54 W9        30.39S
HELENA         CLOUDY    42  15  33 W7        30.48F
BUTTE          CLOUDY    26  18  71 NW3       30.52S
BOZEMAN        CLOUDY    30  22  72 CALM      30.51R

WESTERN MONTANA


CITY           SKY/WX    TMP DP  RH WIND       PRES   REMARKS
MISSOULA       CLOUDY    34  27  75 W3        30.62R
KALISPELL      NOT AVBL

NORTH DAKOTA


CITY           SKY/WX    TMP DP  RH WIND       PRES   REMARKS
WILLISTON      CLEAR     30  19  63 NW20G29   30.29R
DICKINSON      CLEAR     28  13  53 NW28G37   30.21R
MINOT          PTCLDY    29  16  58 NW24G36   30.14R
BISMARCK       MOCLDY    33  19  56 N29G41    30.13R

SOUTHERN SASKATCHEWAN


CITY           SKY/WX    TMP DP  RH WIND       PRES   REMARKS
REGINA         CLEAR     25  19  80 NW16G22   30.28S
ESTEVAN        PTCLDY    25  19  80 NW20G28   30.24R
SWIFT CURRENT  CLEAR     25  18  74 W13       30.34S




USA.gov is the U.S. government's official web portal to all federal, state and local government web resources and services.